Regional Weather Roundup
Issued by NWS

Home | Current Version | Previous Version | Text Only | Print | Product List | Glossary On
Versions: 1 2 3 4 5 6 7 8 9 10 11 12 13 14 15 16 17 18 19 20 21 22 23 24 25 26 27 28 29 30 31 32 33 34 35 36 37 38 39 40 41 42 43 44 45 46 47 48 49 50
000
ASUS43 KIND 241709
RWRIN

WEATHER ROUNDUP FOR INDIANA
NATIONAL WEATHER SERVICE INDIANAPOLIS IN
100 PM EDT MON JUL 24 2017

NOTE: "FAIR" INDICATES FEW OR NO CLOUDS BELOW 12,000 FEET WITH NO
SIGNIFICANT WEATHER AND/OR OBSTRUCTIONS TO VISIBILITY.

* - STATION DOES NOT REPORT WEATHER SUCH AS PRECIPITATION OR FOG.

+ - STATION NOT QUALITY CONTROLLED BY THE NATIONAL WEATHER SERVICE.
    USE DATA WITH CAUTION...ESPECIALLY DEWPOINT AND RELATIVE
    HUMIDITY OBSERVATIONS.

INZ001>003-010>013-019-020-241800-
NORTHWEST INDIANA

CITY           SKY/WX    TMP DP  RH WIND       PRES   REMARKS
GARY /AIRPORT/ PTSUNNY   73  59  60 N12G23    30.04R
KNOX *+        CLOUDY    70  61  73 N9        30.01R
LA PORTE +     CLOUDY    70  60  70 N12       30.02S
MICHIGAN CITY+ CLOUDY    70  59  68 N9G20     30.03S
MONTICELLO +   PTSUNNY   75  64  69 N10       29.99R
RENSSELAER +   PTSUNNY   73  61  64 N10       30.00S
VALPARAISO     CLOUDY    73  62  68 N9G17     30.02S

$$

LMZ046-743>745-241800-
SOUTHERN LAKE MICHIGAN

STATION/POSITION TIME  TEMP    WIND        PRES    WAVE
                       AIR SEA DIR/SP/G            HT
                 (UTC) (F)     (DEG/KT/KT) (MB)    (FT)
BURNS HARBOR     1640   69      10/ 14/ 17 1017.3R
MICHIGAN CITY    1640   68     360/ 17/ 19   N/A
5NW MICH CITY    1700   68 74   30/ 12/ 17   N/A     6

$$

INZ004-005-014>016-021>024-241800-
NORTH CENTRAL INDIANA

CITY           SKY/WX    TMP DP  RH WIND       PRES   REMARKS
ELKHART        PTSUNNY   70  59  68 N12       30.01R
GOSHEN         PTSUNNY   73  58  59 NE9       30.00R
LOGANSPORT +   PTSUNNY   75  63  64 N7        29.99S
PERU/GRISSOM   CLOUDY    75  64  68 N12       29.98S
ROCHESTER +    CLOUDY    73  61  64 N8        30.00S
SOUTH BEND     PTSUNNY   72  60  66 N9        30.01S
WARSAW +       CLOUDY    70  59  68 N9        30.01R

$$

INZ006>009-017-018-025>027-241800-
NORTHEAST INDIANA

CITY           SKY/WX    TMP DP  RH WIND       PRES   REMARKS
AUBURN +       CLOUDY    70  57  64 N9        30.01R
FORT WAYNE     CLOUDY    72  61  68 N10       29.99R
HUNTINGTON +   PTSUNNY   71  62  71 N6        29.99S
KENDALLVILLE + CLOUDY    69  60  74 N10       30.01R

$$

INZ028-029-035-036-043>045-051>053-241800-
WEST CENTRAL INDIANA

CITY           SKY/WX    TMP DP  RH WIND       PRES   REMARKS
GREENCASTLE +  FAIR      77  66  69 N7        29.99S
LAFAYETTE      PTSUNNY   75  65  70 N8        29.99R
TERRE HAUTE    FAIR      81  67  62 NE7       29.98R

$$

INZ030>032-037>040-046>048-054>057-064-065-241800-
CENTRAL INDIANA

CITY           SKY/WX    TMP DP  RH WIND       PRES   REMARKS
ANDERSON       PTSUNNY   77  68  73 MISG      29.99
CP ATTERBURY + FAIR      81  64  57 N6        29.97S
COLUMBUS       MOSUNNY   79  66  65 NE3       29.97R
FRANKFORT +    CLOUDY    77  68  74 N6        30.01S
GREENWOOD *+   FAIR     N/A N/A N/A N5        29.98S
INDIANAPOLIS   FAIR      80  66  62 NW10      29.97R
-EAGLE CREEK   FAIR      78  66  66 N9        29.98R
KOKOMO +       CLOUDY    75  64  68 N8        30.00S
MARION +       CLOUDY    73  63  68 N9        30.00R
MT COMFORT *+  FAIR      77  66  69 N9        29.99R
SHELBYVILLE    FAIR      81  66  60 NW9       29.97R
ZIONSVILLE +   PTSUNNY   73  65  76 N7        30.00R

$$

INZ033-034-041-042-049-050-058-059-241800-
EAST CENTRAL INDIANA

CITY           SKY/WX    TMP DP  RH WIND       PRES   REMARKS
MUNCIE         PTSUNNY   78  66  66 VRB7      29.98R
RICHMOND +     FAIR      77  64  65 N7        29.98R

$$

INZ060-061-067>069-081>083-085>088-241800-
SOUTHWEST INDIANA

CITY           SKY/WX    TMP DP  RH WIND       PRES   REMARKS
EVANSVILLE     FAIR      88  72  58 NW8       29.95S
HUNTINGBURG *+ PTSUNNY   85  74  69 NW6       29.95S

$$

INZ062-063-066-070>080-084-089>092-241800-
SOUTH CENTRAL AND SOUTHEAST INDIANA

CITY           SKY/WX    TMP DP  RH WIND       PRES   REMARKS
BEDFORD +      FAIR      81  66  61 N6        29.96R
BLOOMINGTON    FAIR      82  67  60 N7        29.97R
MADISON *+     FAIR      82  64  54 NW7       29.98R
NORTH VERNON + FAIR      79  66  65 N6        29.97R
SEYMOUR +      FAIR     N/A N/A N/A N6        29.96R

$$





USA.gov is the U.S. government's official web portal to all federal, state and local government web resources and services.